Regional Weather Roundup
Issued by NWS Upton, NY

Current Version | Previous Version | Text Only | Print | Product List | Glossary Off
Versions: 1 2 3 4 5 6 7 8 9 10 11 12 13 14 15 16 17 18 19 20 21 22 23 24 25 26 27 28 29 30 31 32 33 34 35 36 37 38 39 40 41 42 43 44 45 46 47 48 49 50
790 ASUS41 KOKX 210508 RWROKX REGIONAL WEATHER ROUNDUP NATIONAL WEATHER SERVICE NEW YORK NY 1200 AM EST TUE FEB 21 2017 NOTE: "FAIR" INDICATES FEW OR NO CLOUDS BELOW 12,000 FEET WITH NO SIGNIFICANT WEATHER AND/OR OBSTRUCTIONS TO VISIBILITY. NYZ071-072-176-178-NJZ106-104-210600- NEW YORK CITY METRO AREA CITY SKY/WX TMP DP RH WIND PRES REMARKS Central Park CLEAR 39 11 31 VRB5G16 30.38R Wall St Helipt NOT AVBL LaGuardia APRT PTCLDY 41 14 33 NE7 30.36R Kennedy INTL PTCLDY 38 14 37 N8 30.37R WCI 32 Breezy Point N/A 39 N/A N/A NE8 N/A WCI 34 Newark/Liberty PTCLDY 37 17 44 N10 30.36S WCI 30 Teterboro CLEAR 39 15 37 N5 30.36S $$ NYZ177-179-078>081-210600- LONG ISLAND NEW YORK CITY SKY/WX TMP DP RH WIND PRES REMARKS Jones Beach N/A 37 N/A N/A NE8 N/A WCI 31 Matinecock PT NOT AVBL Farmingdale CLEAR 34 17 50 N6 30.36R WCI 29 MacArthur/ISP PTCLDY 32 17 54 NE6 30.35R WCI 26 Shirley CLEAR 32 16 51 N3 30.37R Westhampton CLEAR 26 16 65 N5 30.37R WCI 20 Southampton NOT AVBL Bridgehampton NOT AVBL East Hampton N/A 25 18 73 N3 30.35R Montauk NOT AVBL $$ NYZ052-065-067-210600- HUDSON VALLEY CITY SKY/WX TMP DP RH WIND PRES REMARKS White Plains CLEAR 34 8 33 N5 30.33S WCI 30 Newburgh CLEAR 32 14 47 VRB6 30.37S WCI 26 Montgomery CLOUDY 30 17 58 NE3 30.35S Poughkeepsie CLEAR 26 18 71 CALM 30.37S Albany CLOUDY 27 13 55 NW6 30.39F WCI 20 $$ NJZ001-105-106-008-010-013-015-019>022-104-210600- NEW JERSEY CITY SKY/WX TMP DP RH WIND PRES REMARKS Newark/Liberty PTCLDY 37 17 44 N10 30.36S WCI 30 Teterboro CLEAR 39 15 37 N5 30.36S Caldwell CLEAR 32 18 56 CALM 30.37S Somerville CLOUDY 30 16 56 N3 30.35S Linden NOT AVBL Sussex CLOUDY 28 20 71 CALM 30.36R Andover N/A 27 20 75 CALM 30.36R Trenton CLEAR 37 15 40 NE8 30.35S WCI 31 Millville PTCLDY 39 20 46 NE7 30.34S WCI 34 Atlantic City CLEAR 37 20 50 NE8 30.34R WCI 31 Wrightstown CLEAR 34 16 47 NE5 30.33R WCI 29 Toms River CLEAR 33 16 49 NE5 30.36R WCI 29 Belmar CLEAR 39 16 39 N6 30.36R WCI 35 $$ PAZ047>061-062-071-210600- EASTERN PENNSYLVANIA CITY SKY/WX TMP DP RH WIND PRES REMARKS Philadelphia PTCLDY 41 14 33 NE8 30.35S Allentown PTCLDY 32 15 49 NE7 30.35F WCI 26 Scranton CLOUDY 32 16 51 E5 30.33S WCI 27 $$ CTZ002-004>006-009-010-012-RIZ004-006-007-MAZ004-011-015-210600- SOUTHERN NEW ENGLAND IN CT CITY SKY/WX TMP DP RH WIND PRES REMARKS Bradley INTL CLEAR 28 12 51 N3 30.37R Hartford CLEAR 29 13 51 CALM 30.38R Danbury CLEAR 25 15 66 SW6 30.36R WCI 18 Wtrbury/Oxford CLEAR 28 10 47 NE7 30.35S WCI 21 Bridgeport CLEAR 37 12 35 NE7 30.36R WCI 32 Meriden CLEAR 28 15 58 CALM 30.37R New Haven CLEAR 30 14 51 N6 30.36R WCI 24 Chester N/A 32 10 40 N3 30.34S Groton CLEAR 34 14 43 N10 30.36R WCI 26 Wilimantic CLEAR 26 18 71 CALM 30.36S IN RI CITY SKY/WX TMP DP RH WIND PRES REMARKS Providence CLEAR 32 14 47 N7 30.36R WCI 26 Block Island CLEAR 36 19 50 N9 30.35R WCI 29 Westerly CLEAR 31 14 49 CALM 30.36R IN MA CITY SKY/WX TMP DP RH WIND PRES REMARKS Boston CLEAR 33 15 47 NW8 30.37R WCI 26 Worcester CLEAR 29 10 45 N8 30.32R WCI 21 Westfield CLEAR 26 13 57 CALM 30.36R Provincetown CLEAR 39 26 59 N14 30.34R WCI 31 Nantucket CLEAR 32 26 78 NW7 30.32R WCI 26 $$ ANZ330-335-338-340-345-350-353-355-210600- COASTAL MARINE OBSERVATIONS STATION/POSITION TIME SKY/WX TEMP WIND PRES VSBY WAVE AIR SEA DIR/SP/G HT/PER (UTC) (F) (DEG/KT/KT) (MB) (MI) (FT/S) NY HARB ENTRANCE 0350 42 42 20/ 17/ 19 1026.8 3/ 4 20 S FIRE ISLAND 0450 41 41 40/ 17/ 19 1026.9 3/ 4 GREAT SOUTH BAY NOT AVBL 23 SSW MONTAUK P 0350 40 43 1027.6 2/ 3 15 E BARNEGAT LI 0430 44 N/A 4/ 5 HUDSON CANYON 0350 49 1025.9 4/ 5 KINGS POINT 0442 38 38 1027.9 EXECUTION ROCKS NOT AVBL CENTRAL LI SOUND 0430 38 20/ 10/ 12 N/A 1/ 2 EASTERN LI SOUND NOT AVBL ROBBINS REEF 0442 40 360/ 10/ 12 1028.2 $$ >>>>>>>>>>>>>>>>>>>>>>>>>>>> KEY <<<<<<<<<<<<<<<<<<<<<<<<<<< > < > SKY/WX - Sky Condition/Present Weather < > TMP - Temperature in Fahrenheit < > DP - Dew Point in Fahrenheit < > RH - Relative Humidity in Percent < > WIND - Direction (from) and Speed in MPH < > PRES - Mean Sea Level Pressure (inches of Hg) < > WCI - Wind Chill Index < > VSB - VISIBILITY IN MILES < > HX - HEAT INDEX < > TC - TEMPERATURE IN CELSIUS < > VRB - VARIABLE WIND DIRECTION < > < >>>>>>>>>>>>>>>>>>>>>>>>>>>> KEY <<<<<<<<<<<<<<<<<<<<<<<<<<<

USA.gov is the U.S. government's official web portal to all federal, state and local government web resources and services.